Regional Weather Roundup
Issued by NWS

Home | Current Version | Previous Version | Text Only | Print | Product List | Glossary Off
Versions: 1 2 3 4 5 6 7 8 9 10 11 12 13 14 15 16 17 18 19 20 21 22 23 24 25 26 27 28 29 30 31 32 33 34 35 36 37 38 39 40 41 42 43 44 45 46 47 48 49 50

000
ASUS43 KDMX 260206
RWRIA

WEATHER ROUNDUP FOR IOWA
NATIONAL WEATHER SERVICE DES MOINES IA
900 PM CDT TUE APR 25 2017

NOTE: "FAIR" INDICATES FEW OR NO CLOUDS BELOW 12,000 FEET WITH NO
SIGNIFICANT WEATHER AND/OR OBSTRUCTIONS TO VISIBILITY.

* - THESE STATIONS ARE NOT NWS STATIONS...THUS NOT UNDER NWS
QUALITY CONTROL.  THEY ALSO DO NOT REPORT WEATHER SUCH
AS PRECIPITATION OR FOG.

IAZ001>003-012>014-020>022-031>034-043>046-260300-
   NORTHWEST IOWA

CITY           SKY/WX    TMP DP  RH WIND       PRES   REMARKS
CARROLL *      CLOUDY    45  45 100 NW17G24   29.53R
CHEROKEE *     DRIZZLE   41  41 100 N14G22    29.58S
DENISON *      LGT RAIN  43  43 100 N14       29.58R
LE MARS *      CLOUDY    41  39  93 N15       29.63R
ORANGE CITY *  LGT RAIN  39  39 100 N18       29.61R WCI  30
SHELDON *      MIX PCPN  39  37  93 NW15G22   29.59S WCI  31
SIOUX CITY     LGT RAIN  41  40  96 N17       29.61S
SPENCER        LGT RAIN  42  41  96 NW17G23   29.57S FOG
STORM LAKE *   MIX PCPN  41  41 100 N14G22    29.56R
$$

IAZ055>058-069>071-079>083-090>094-260300-
   SOUTHWEST IOWA

CITY           SKY/WX    TMP DP  RH WIND       PRES   REMARKS
ATLANTIC *     CLOUDY    46  45  93 N14G20    29.54R
AUDUBON *      RAIN      45  43  93 N16       29.54R
CLARINDA *       N/A     52  46  82 N16       29.56R
COUNCIL BLFS * CLOUDY    43  43 100 NW18      29.57R
CRESTON *      CLOUDY    52  46  82 NW15      29.51R
HARLAN  *      LGT RAIN  45  45 100 N18       29.58R
LAMONI         CLOUDY    64  53  67 W5        29.45S
RED OAK *      LGT RAIN  46  45  93 NW14G21   29.56R
SHENANDOAH *   CLOUDY    46  43  87 NW14G21   29.57R
$$

IAZ047>049-059>061-072>074-084-260300-
   CENTRAL IOWA

CITY           SKY/WX    TMP DP  RH WIND       PRES   REMARKS
AMES           CLOUDY    57  53  86 N20       29.45R
ANKENY *       CLOUDY    59  52  77 W15       29.46R
BOONE *        CLOUDY    52  50  93 NW17G24   29.46R
CHARITON *     CLOUDY    66  54  63 CALM      29.44S
DES MOINES     LGT RAIN  57  49  74 NW16      29.46R
GRINNELL*      CLOUDY    67  47  47 CALM      29.45S
KNOXVILLE *    CLOUDY    66  54  63 W8        29.43S
MARSHALLTOWN   CLOUDY    63  51  65 CALM      29.43S
NEWTON *       CLOUDY    66  48  52 CALM      29.43S
PELLA *        DRIZZLE   67  53  60 W6        29.45R
PERRY *        CLOUDY    49  45  85 NW18      29.49S
$$

IAZ004>006-015-016-023>025-035-036-260300-
   NORTH CENTRAL IOWA

CITY           SKY/WX    TMP DP  RH WIND       PRES   REMARKS
ALGONA *       CLOUDY    46  46 100 NW12G17   29.53R
CLARION *      CLOUDY    48  48 100 N14       29.49F
ESTHERVILLE    LGT RAIN  42  42 100 NW15      29.55R FOG
FORT DODGE *   CLOUDY    46  39  76 NW8       29.52S
MASON CITY     CLOUDY    52  50  93 N14       29.50S
FOREST CITY *  CLOUDY    46  45  93 N12       29.50F
WEBSTER CITY * CLOUDY    48  46  93 N16G23    29.47F
IOWA FALLS *   CLOUDY    59  52  77 NW14      29.47R
$$

IAZ007>011-017>019-026>030-037>042-050>054-066-260300-
   NORTHEAST IOWA

CITY           SKY/WX    TMP DP  RH WIND       PRES   REMARKS
CEDAR RAPIDS   CLOUDY    65  51  60 E3        29.43F
CHARLES CITY * CLOUDY    59  57  94 NE6       29.47R
CLINTON *      MOCLDY    70  49  47 SE9       29.49R
DECORAH *      CLOUDY    63  50  63 NE8       29.47R
DUBUQUE        CLOUDY    69  43  38 SE9       29.48S
MONTICELLO *   CLOUDY    70  45  40 SE7       29.46S
OELWEIN *      CLOUDY    66  48  52 VRB3      29.46S
WATERLOO       CLOUDY    63  50  62 NE6       29.43F
$$

IAZ064-065-067-068-078-260300-
   EAST CENTRAL IOWA

CITY           SKY/WX    TMP DP  RH WIND       PRES   REMARKS
DAVENPORT      CLOUDY    70  49  47 SE12      29.47S HAZE
IOWA CITY      CLOUDY    71  49  45 E3        29.45S
MT. PLEASANT * CLOUDY    68  50  51 SE9       29.44R
MUSCATINE *    CLOUDY    70  50  49 SE5       29.45S
QUAD CITIES    CLOUDY    70  48  45 SE6       29.46R
$$

IAZ062-063-075>077-085>089-095>099-260300-
   SOUTHEAST IOWA

CITY           SKY/WX    TMP DP  RH WIND       PRES   REMARKS
BURLINGTON     CLOUDY    72  50  45 SE10      29.44S
FAIRFIELD *    CLOUDY    68  50  52 CALM      29.44R
FORT MADISON * CLOUDY    72  50  46 SE8       29.45R
KEOKUK *       MOCLDY    72  52  49 SE8       29.43R
OSKALOOSA *    CLOUDY    67  50  54 S6        29.45R
CENTERVILLE *    N/A     64  55  72 CALM      29.45F
OTTUMWA        LGT RAIN  69  51  52 VRB3      29.44R
WASHINGTON *   CLOUDY    66  50  55 E6        29.45S
$$

ABBREVIATIONS USED IN REMARKS
   TC - TEMPERATURES IN CELSIUS
  WCI - WIND CHILL INDEX
   HX - HEAT INDEX
  VSB - VISIBILITY
$$





USA.gov is the U.S. government's official web portal to all federal, state and local government web resources and services.